timestamp,wind_dir_avg,wind_spd_avg,wind_spd_max_dir,wind_spd_gust,battery_voltage,lat,long
2022-06-07 00:04:00+00:00,211.0,3.86,210.0,4.48,13.05,47.59359,-54.27349
2022-06-07 00:14:00+00:00,203.0,3.9,204.0,4.32,12.57,47.59359,-54.27349
2022-06-07 00:24:00+00:00,184.0,3.05,186.0,3.32,12.57,47.59359,-54.27349
2022-06-07 00:34:00+00:00,190.0,2.8,198.0,3.23,12.57,47.59359,-54.27349
2022-06-07 00:44:00+00:00,336.0,3.45,333.0,3.93,12.57,47.59359,-54.27349
2022-06-07 00:54:00+00:00,32.0,5.1,45.0,6.17,12.57,47.59359,-54.27349
2022-06-07 01:04:00+00:00,10.0,4.26,12.0,5.2,12.57,47.59359,-54.27349
2022-06-07 01:14:01+00:00,29.0,5.4,30.0,5.57,12.41,47.59359,-54.27349
2022-06-07 01:24:01+00:00,36.0,3.71,36.0,4.26,12.41,47.59359,-54.27349
2022-06-07 01:34:01+00:00,73.0,6.04,67.0,6.42,12.41,47.59359,-54.27349
2022-06-07 01:44:01+00:00,98.0,2.18,58.0,3.32,12.41,47.59359,-54.27349
2022-06-07 01:54:01+00:00,69.0,2.1,51.0,3.21,12.41,47.59359,-54.27349
2022-06-07 02:04:01+00:00,70.0,2.75,56.0,3.11,12.41,47.59359,-54.27349
2022-06-07 02:14:01+00:00,315.0,0.01,66.0,0.0,12.41,47.59359,-54.27349
2022-06-07 02:24:01+00:00,52.0,6.13,50.0,6.6,12.41,47.59359,-54.27349
2022-06-07 02:34:01+00:00,38.0,7.04,37.0,7.21,12.41,47.59359,-54.27349
2022-06-07 02:44:01+00:00,43.0,4.25,42.0,4.6,12.41,47.59359,-54.27349
2022-06-07 02:54:01+00:00,55.0,5.58,54.0,5.93,12.41,47.59359,-54.27349
2022-06-07 03:04:01+00:00,55.0,4.75,57.0,5.13,12.41,47.59359,-54.27349
2022-06-07 03:14:00+00:00,49.0,5.24,47.0,5.46,12.41,47.59359,-54.27349
2022-06-07 03:24:00+00:00,43.0,5.87,46.0,6.25,12.41,47.59359,-54.27349
2022-06-07 03:34:00+00:00,43.0,6.55,45.0,7.11,12.41,47.59359,-54.27349
2022-06-07 03:44:00+00:00,38.0,6.63,37.0,7.46,12.41,47.59359,-54.27349
2022-06-07 03:54:00+00:00,40.0,6.62,40.0,7.1,12.41,47.59359,-54.27349
2022-06-07 04:04:00+00:00,47.0,5.41,52.0,6.44,12.41,47.59359,-54.27349
2022-06-07 04:14:01+00:00,38.0,6.22,43.0,7.36,12.33,47.59359,-54.27349
2022-06-07 04:24:01+00:00,46.0,6.08,43.0,6.8,12.33,47.59359,-54.27349
2022-06-07 04:34:01+00:00,34.0,7.61,34.0,8.08,12.33,47.59359,-54.27349
2022-06-07 04:44:01+00:00,30.0,8.67,31.0,9.29,12.33,47.59359,-54.27349
2022-06-07 04:54:01+00:00,26.0,8.0,41.0,9.38,12.33,47.59359,-54.27349
2022-06-07 05:04:01+00:00,36.0,8.58,40.0,9.88,12.33,47.59359,-54.27349
2022-06-07 05:14:01+00:00,31.0,7.65,40.0,9.33,12.33,47.59359,-54.27349
2022-06-07 05:24:01+00:00,30.0,7.91,33.0,8.63,12.33,47.59359,-54.27349
2022-06-07 05:34:01+00:00,30.0,8.07,42.0,9.49,12.33,47.59359,-54.27349
2022-06-07 05:44:01+00:00,30.0,8.58,40.0,10.39,12.33,47.59359,-54.27349
2022-06-07 05:54:01+00:00,28.0,8.66,37.0,10.12,12.33,47.59359,-54.27349
2022-06-07 06:04:01+00:00,39.0,9.35,40.0,10.72,12.33,47.59359,-54.27349
2022-06-07 06:14:00+00:00,47.0,10.14,50.0,13.14,12.33,47.59359,-54.27349
2022-06-07 06:24:00+00:00,46.0,8.46,49.0,9.93,12.33,47.59359,-54.27349
2022-06-07 06:34:00+00:00,47.0,10.55,59.0,15.04,12.33,47.59359,-54.27349
2022-06-07 06:44:00+00:00,48.0,9.23,49.0,10.21,12.33,47.59359,-54.27349
2022-06-07 06:54:00+00:00,41.0,8.83,42.0,10.7,12.33,47.59359,-54.27349
2022-06-07 07:04:00+00:00,47.0,9.02,50.0,10.61,12.33,47.59359,-54.27349
2022-06-07 07:14:00+00:00,48.0,9.75,50.0,11.47,12.25,47.59359,-54.27349
2022-06-07 07:24:00+00:00,47.0,7.94,48.0,9.64,12.25,47.59359,-54.27349
2022-06-07 07:34:00+00:00,53.0,8.17,50.0,9.33,12.25,47.59359,-54.27349
2022-06-07 07:44:00+00:00,51.0,9.05,52.0,9.96,12.25,47.59359,-54.27349
2022-06-07 07:54:00+00:00,49.0,8.05,53.0,9.68,12.25,47.59359,-54.27349
2022-06-07 08:04:00+00:00,47.0,8.29,43.0,9.58,12.25,47.59359,-54.27349
2022-06-07 08:14:00+00:00,47.0,8.16,48.0,9.16,12.33,47.59359,-54.27349
2022-06-07 08:24:00+00:00,49.0,7.92,52.0,8.86,12.33,47.59359,-54.27349
2022-06-07 08:34:00+00:00,52.0,7.22,51.0,8.1,12.33,47.59359,-54.27349
2022-06-07 08:44:00+00:00,53.0,7.1,55.0,7.87,12.33,47.59359,-54.27349
2022-06-07 08:54:00+00:00,51.0,6.62,54.0,7.52,12.33,47.59359,-54.27349
2022-06-07 09:04:00+00:00,49.0,6.24,44.0,6.98,12.33,47.59359,-54.27349
2022-06-07 09:14:01+00:00,48.0,5.54,54.0,6.21,12.65,47.59359,-54.27349
2022-06-07 09:24:01+00:00,40.0,5.49,41.0,6.19,12.65,47.59359,-54.27349
2022-06-07 09:34:01+00:00,37.0,4.7,45.0,5.36,12.65,47.59359,-54.27349
2022-06-07 09:44:01+00:00,36.0,4.99,33.0,5.52,12.65,47.59359,-54.27349
2022-06-07 09:54:01+00:00,43.0,6.13,44.0,6.64,12.65,47.59359,-54.27349
2022-06-07 10:04:01+00:00,51.0,5.07,57.0,6.25,12.65,47.59359,-54.27349
2022-06-07 10:14:01+00:00,48.0,7.45,50.0,7.8,13.37,47.59359,-54.27349
2022-06-07 10:24:01+00:00,42.0,7.11,40.0,7.8,13.37,47.59359,-54.27349
2022-06-07 10:34:01+00:00,45.0,7.57,46.0,8.22,13.37,47.59359,-54.27349
2022-06-07 10:44:01+00:00,40.0,7.16,40.0,7.82,13.37,47.59359,-54.27349
2022-06-07 10:54:01+00:00,47.0,7.58,41.0,8.34,13.37,47.59359,-54.27349
2022-06-07 11:04:01+00:00,45.0,9.22,47.0,10.03,13.37,47.59359,-54.27349
2022-06-07 11:14:00+00:00,40.0,9.67,45.0,10.47,13.37,47.59359,-54.27349
2022-06-07 11:24:00+00:00,44.0,10.01,44.0,10.96,13.37,47.59359,-54.27349
2022-06-07 11:34:00+00:00,42.0,10.15,42.0,10.81,13.37,47.59359,-54.27349
2022-06-07 11:44:00+00:00,44.0,9.29,46.0,9.9,13.37,47.59359,-54.27349
2022-06-07 11:54:00+00:00,35.0,9.3,38.0,10.64,13.37,47.59359,-54.27349
2022-06-07 12:04:00+00:00,36.0,8.94,37.0,10.5,13.37,47.59359,-54.27349
2022-06-07 12:14:01+00:00,27.0,8.55,33.0,10.38,13.84,47.59359,-54.27349
2022-06-07 12:24:01+00:00,27.0,8.27,31.0,9.66,13.84,47.59359,-54.27349
2022-06-07 12:34:01+00:00,33.0,7.49,37.0,9.24,13.84,47.59359,-54.27349
2022-06-07 12:44:01+00:00,31.0,7.63,33.0,8.42,13.84,47.59359,-54.27349
2022-06-07 12:54:01+00:00,34.0,7.2,39.0,8.51,13.84,47.59359,-54.27349
2022-06-07 13:04:01+00:00,32.0,6.85,35.0,8.03,13.84,47.59359,-54.27349
2022-06-07 13:14:00+00:00,34.0,7.07,37.0,7.88,13.76,47.59359,-54.27349
2022-06-07 13:24:00+00:00,35.0,6.41,34.0,7.71,13.76,47.59359,-54.27349
2022-06-07 13:34:00+00:00,45.0,6.42,47.0,6.92,13.76,47.59359,-54.27349
2022-06-07 13:44:00+00:00,44.0,6.25,49.0,8.52,13.76,47.59359,-54.27349
2022-06-07 13:54:00+00:00,47.0,5.25,58.0,7.52,13.76,47.59359,-54.27349
2022-06-07 14:04:00+00:00,54.0,5.29,55.0,6.12,13.76,47.59359,-54.27349
2022-06-07 14:14:00+00:00,40.0,6.55,38.0,7.78,14.4,47.59359,-54.27349
2022-06-07 14:24:00+00:00,35.0,7.12,36.0,8.39,14.4,47.59359,-54.27349
2022-06-07 14:34:00+00:00,42.0,7.87,43.0,8.74,14.4,47.59359,-54.27349
2022-06-07 14:44:00+00:00,33.0,8.05,33.0,8.82,14.4,47.59359,-54.27349
2022-06-07 14:54:00+00:00,36.0,7.52,36.0,8.37,14.4,47.59359,-54.27349
2022-06-07 15:04:00+00:00,41.0,6.64,48.0,8.64,14.4,47.59359,-54.27349
2022-06-07 15:14:00+00:00,51.0,7.9,51.0,9.64,13.68,47.59359,-54.27349
2022-06-07 15:24:00+00:00,48.0,8.17,47.0,9.78,13.68,47.59359,-54.27349
2022-06-07 15:34:00+00:00,45.0,5.11,56.0,6.65,13.68,47.59359,-54.27349
2022-06-07 15:44:00+00:00,41.0,6.86,43.0,8.74,13.68,47.59359,-54.27349
2022-06-07 15:54:00+00:00,47.0,7.04,54.0,8.76,13.68,47.59359,-54.27349
2022-06-07 16:04:00+00:00,53.0,6.98,54.0,8.7,13.68,47.59359,-54.27349
2022-06-07 17:14:00+00:00,62.0,6.58,69.0,7.72,14.24,47.59359,-54.27349
2022-06-07 17:24:00+00:00,71.0,7.18,72.0,8.19,14.24,47.59359,-54.27349
2022-06-07 17:34:00+00:00,67.0,6.83,66.0,8.2,14.24,47.59359,-54.27349
2022-06-07 17:44:00+00:00,59.0,5.23,61.0,6.11,14.24,47.59359,-54.27349
2022-06-07 17:54:00+00:00,60.0,5.52,61.0,6.26,14.24,47.59359,-54.27349
2022-06-07 18:04:00+00:00,65.0,5.05,68.0,5.13,14.24,47.59359,-54.27349
2022-06-07 18:14:00+00:00,62.0,5.24,65.0,5.38,13.76,47.59359,-54.27349
2022-06-07 18:24:00+00:00,315.0,0.01,56.0,0.0,13.76,47.59359,-54.27349
2022-06-07 18:34:00+00:00,315.0,0.01,52.0,0.0,13.76,47.59359,-54.27349
2022-06-07 18:44:00+00:00,315.0,0.01,51.0,0.0,13.76,47.59359,-54.27349
2022-06-07 18:54:00+00:00,18.0,5.95,18.0,6.31,13.76,47.59359,-54.27349
2022-06-07 19:04:00+00:00,315.0,0.01,19.0,0.0,13.76,47.59359,-54.27349
2022-06-07 19:14:01+00:00,315.0,0.01,18.0,0.0,13.68,47.59359,-54.27349
2022-06-07 19:24:01+00:00,315.0,0.01,18.0,0.0,13.68,47.59359,-54.27349
2022-06-07 19:34:01+00:00,17.0,5.71,15.0,6.41,13.68,47.59359,-54.27349
2022-06-07 19:44:01+00:00,16.0,7.86,15.0,8.46,13.68,47.59359,-54.27349
2022-06-07 19:54:01+00:00,4.0,9.6,5.0,10.91,13.68,47.59359,-54.27349
2022-06-07 20:04:01+00:00,14.0,8.17,15.0,8.38,13.68,47.59359,-54.27349
2022-06-07 20:14:00+00:00,315.0,0.01,15.0,0.0,13.76,47.59359,-54.27349
2022-06-07 20:24:00+00:00,24.0,5.73,18.0,6.61,13.76,47.59359,-54.27349
2022-06-07 20:34:00+00:00,315.0,0.01,14.0,0.0,13.76,47.59359,-54.27349
2022-06-07 20:44:00+00:00,14.0,8.62,15.0,8.63,13.76,47.59359,-54.27349
2022-06-07 20:54:00+00:00,315.0,0.01,25.0,0.0,13.76,47.59359,-54.27349
2022-06-07 21:04:00+00:00,14.0,9.61,14.0,9.63,13.76,47.59359,-54.27349
2022-06-07 21:14:00+00:00,19.0,6.65,16.0,7.55,13.68,47.59359,-54.27349
2022-06-07 21:24:00+00:00,14.0,8.55,13.0,9.94,13.68,47.59359,-54.27349
2022-06-07 21:34:00+00:00,17.0,7.57,16.0,8.3,13.68,47.59359,-54.27349
2022-06-07 21:44:00+00:00,29.0,6.16,30.0,6.32,13.68,47.59359,-54.27349
2022-06-07 21:54:00+00:00,12.0,9.24,12.0,10.67,13.68,47.59359,-54.27349
2022-06-07 22:04:00+00:00,8.0,9.17,7.0,10.73,13.68,47.59359,-54.27349
2022-06-07 22:14:00+00:00,18.0,6.79,18.0,7.71,13.6,47.59359,-54.27349
2022-06-07 22:24:00+00:00,15.0,7.53,15.0,9.09,13.6,47.59359,-54.27349
2022-06-07 22:34:00+00:00,14.0,9.41,14.0,10.45,13.6,47.59359,-54.27349
2022-06-07 22:44:00+00:00,12.0,10.88,12.0,12.15,13.6,47.59359,-54.27349
2022-06-07 22:54:00+00:00,11.0,9.93,9.0,11.32,13.6,47.59359,-54.27349
2022-06-07 23:04:00+00:00,13.0,9.89,14.0,11.05,13.6,47.59359,-54.27349
2022-06-07 23:14:00+00:00,14.0,8.18,14.0,9.46,13.29,47.59359,-54.27349
2022-06-07 23:24:00+00:00,13.0,6.4,14.0,7.55,13.29,47.59359,-54.27349
2022-06-07 23:34:00+00:00,13.0,6.23,13.0,7.4,13.29,47.59359,-54.27349
2022-06-07 23:44:00+00:00,23.0,5.9,17.0,7.21,13.29,47.59359,-54.27349
2022-06-07 23:54:00+00:00,23.0,3.91,26.0,4.51,13.29,47.59359,-54.27349
